Tracking 18673 objects as of 27-June-2017
HD Live streaming from Space Station
objects crossing your sky now

ARIANE 5 DEB (SYLDA)

Track ARIANE 5 DEB (SYLDA) now!


NORAD ID: 28914
Int'l Code: 2005-049D
Perigee: 657.6 km
Apogee: 36,030.1 km
Inclination: 4.1 °
Period: 644.5 minutes
Semi major axis: 24714 km
RCS: 22.4158 m2 (large)
Launch date: December 21, 2005
Source: France (FR)
Launch site: FRENCH GUIANA (FRGUI)

Note: This is SATELLITE DEBRIS
Your satellite tracking list
Your tracking list is empty





NASA's NSSDC Master Catalog

Two Line Element Set (TLE):
1 28914U 05049D   17177.68379289 -.00000054 +00000-0 +13320-2 0  9998
2 28914 004.1459 111.4626 7156140 042.3582 202.3893 02.23442735093975
Source of the keplerian elements: AFSPC